Curacao, Curacao

4:02 AM AST on November 15, 2019 (GMT -0400)
Willemstad-Hato International

Weather History for TNCC - October, 2019

Change the Weather History Date:

Tuesday, October 22, 2019

  Actual Average Record
Temperature  
Mean Temperature 84 °F -  
Max Temperature 89 °F 87 °F 93 °F (2000)
Min Temperature 78 °F 76 °F 35 °F (1998)
Cooling Degree Days 18    
Growing Degree Days 34 (Base 50)    
Moisture  
Dew Point 73 °F    
Average Humidity 71    
Maximum Humidity 83    
Minimum Humidity 53    
Precipitation  
Precipitation 0.02 in 0.12 in - ()
Sea Level Pressure  
Sea Level Pressure 29.86 in    
Wind  
Wind Speed 6 mph ()    
Max Wind Speed 12 mph    
Max Gust Speed -    
Visibility 7.1 miles    
Events Rain , Thunderstorm    
Averages and records for this station are not official NWS values.
T = Trace of Precipitation, MM = Missing Value Source: Averaged Metar Reports

Daily Weather History Graph

Daily Weather History Graph

Search for Another Location

Airport or City:

Astronomy

Oct. 22, 2019 Rise Set
Actual Time 6:26 AM AST 6:13 PM AST
Civil Twilight 6:05 AM AST 6:35 PM AST
Nautical Twilight 5:40 AM AST 7:00 PM AST
Astronomical Twilight 5:15 AM AST 7:25 PM AST
Moon 12:57 AM AST (10/22) 2:01 PM AST (10/22)
Length of Visible Light 12h 30m
Length of Day
11h 47m
Last Quarter, 37% of the Moon is Illuminated
Oct 22
Last Quarter
Oct 27
New
Nov 4
First Quarter
Nov 12
Full
Nov 19
Last Quarter

Hourly Weather History & Observations

Time (AST) Temp. Heat Index Dew Point Humidity Pressure Visibility Wind Dir Wind Speed Gust Speed Precip Events Conditions
12:00 AM 80.6 °F 84.6 °F 71.6 °F 74% 29.89 in 6.2 mi SE 4.6 mph - N/A   Partly Cloudy
1:00 AM 80.6 °F 84.6 °F 71.6 °F 74% 29.89 in 6.2 mi SE 5.8 mph - N/A   Partly Cloudy
2:00 AM 81 °F - 72 °F 68% 29.88 in 22 mi South 3.5 mph - -   Scattered Clouds
2:00 AM 80.6 °F 84.6 °F 71.6 °F 74% 29.86 in 6.2 mi South 4.6 mph - N/A   Partly Cloudy
2:30 AM 82.4 °F 88.2 °F 73.4 °F 74% 29.86 in 6.2 mi SE 4.6 mph - N/A Rain Light Rain
2:46 AM 80.6 °F 85.4 °F 73.4 °F 79% 29.86 in 6.2 mi Variable 2.3 mph - N/A Rain Light Rain Showers
3:00 AM 80.6 °F 85.4 °F 73.4 °F 79% 29.86 in 6.2 mi Variable 2.3 mph - N/A   Partly Cloudy
4:00 AM 78.8 °F - 73.4 °F 83% 29.86 in 6.2 mi SSE 5.8 mph - N/A   Partly Cloudy
5:00 AM 79 °F - 73 °F 76% 29.86 in 22 mi SSE 4.6 mph - -   Scattered Clouds
6:00 AM 78.8 °F - 71.6 °F 78% 29.86 in 6.2 mi SE 3.5 mph - N/A   Scattered Clouds
7:00 AM 78.8 °F - 73.4 °F 83% 29.89 in 6.2 mi SSE 4.6 mph - N/A   Partly Cloudy
8:00 AM 83 °F - 73 °F 64% 29.91 in 19 mi SE 6.9 mph - -   Partly Cloudy
8:00 AM 84.2 °F 90.9 °F 73.4 °F 70% 29.92 in 6.2 mi SE 6.9 mph - N/A   Scattered Clouds
9:00 AM 86.0 °F 93.4 °F 73.4 °F 66% 29.92 in 6.2 mi East 8.1 mph - N/A   Scattered Clouds
10:00 AM 87.8 °F 95.6 °F 73.4 °F 62% 29.92 in 6.2 mi East 9.2 mph - N/A   Scattered Clouds
11:00 AM 89 °F - 74 °F 53% 29.93 in 19 mi East 10.4 mph - -   Partly Cloudy
11:00 AM 87.8 °F 95.6 °F 73.4 °F 62% 29.92 in 6.2 mi East 9.2 mph - N/A   Scattered Clouds
12:00 PM 87.8 °F 95.6 °F 73.4 °F 62% 29.89 in 6.2 mi East 9.2 mph - N/A   Scattered Clouds
1:00 PM 86.0 °F 93.4 °F 73.4 °F 66% 29.86 in 6.2 mi East 9.2 mph - N/A   Scattered Clouds
2:00 PM 84 °F - 73 °F 63% 29.85 in 5 mi ESE 11.5 mph - - Thunderstorm Thunderstorm
2:00 PM 84.2 °F 90.9 °F 73.4 °F 70% 29.83 in 6.2 mi East 11.5 mph - N/A Thunderstorm Thunderstorm
3:00 PM 86.0 °F 93.4 °F 73.4 °F 66% 29.83 in 6.2 mi East 8.1 mph - N/A   Partly Cloudy
4:00 PM 86.0 °F 93.4 °F 73.4 °F 66% 29.80 in 6.2 mi East 8.1 mph - N/A   Partly Cloudy
5:00 PM 85 °F - 73 °F 60% 29.81 in 25 mi East 6.9 mph - -   Partly Cloudy
5:00 PM 84.2 °F 90.9 °F 73.4 °F 70% 29.80 in 6.2 mi ENE 4.6 mph - N/A   Partly Cloudy
6:00 PM 82.4 °F 88.2 °F 73.4 °F 74% 29.80 in 6.2 mi ENE 5.8 mph - N/A   Partly Cloudy
7:00 PM 82.4 °F 89.5 °F 75.2 °F 79% 29.80 in 6.2 mi ENE 6.9 mph - N/A   Partly Cloudy
7:01 PM - - - N/A% - - North - - N/A   Unknown
8:00 PM 82 °F - 74 °F 69% 29.83 in 25 mi East 11.5 mph - -   Partly Cloudy
8:00 PM 82.4 °F 88.2 °F 73.4 °F 74% 29.83 in 6.2 mi ENE 9.2 mph - N/A   Partly Cloudy
9:00 PM 82.4 °F 89.5 °F 75.2 °F 79% 29.83 in 6.2 mi East 9.2 mph - N/A   Partly Cloudy
10:00 PM 82.4 °F 89.5 °F 75.2 °F 79% 29.86 in 6.2 mi East 9.2 mph - N/A   Partly Cloudy
11:00 PM 82.4 °F 88.2 °F 73.4 °F 74% 29.86 in 6.2 mi ESE 10.4 mph - N/A   Partly Cloudy